Wind_Speed
11 11 11 11 11 11 12 12 12 12 12 12 13 13 14 14 15 15 15 15 16 16 16 17 17 17 17 18 18 19 19 19 20 20 20 21 21 21 21 21 21 21 21 20 21 21 21 21 20 20 20 20 20 21 21 21 21 21 21 22 22 23 23 24 25 26 26 27 27
12 12 12 12 12 12 12 12 12 12 12 13 13 14 14 15 15 16 16 16 16 16 17 17 18 18 18 19 19 20 20 20 20 21 21 22 22 22 22 21 21 21 21 21 21 21 20 20 20 20 20 20 21 21 21 22 22 22 22 23 23 23 23 25 25 26 26 27 27
12 12 12 12 12 12 12 13 13 13 14 14 14 14 15 15 15 16 16 16 16 17 17 18 18 18 19 20 20 20 20 21 21 22 22 22 22 21 21 21 21 21 21 21 21 21 21 21 21 21 20 20 20 21 21 21 21 22 23 23 23 22 23 24 25 26 26 26 26
13 13 13 13 13 13 14 14 14 15 15 15 15 15 15 15 16 16 16 16 16 17 17 17 18 19 20 20 21 21 21 22 22 23 22 22 22 21 21 20 21 21 21 21 21 22 22 22 21 21 21 20 20 21 20 20 21 22 23 23 23 23 23 24 24 25 25 26 26
14 14 13 13 14 14 14 15 15 16 16 16 15 15 15 15 16 16 16 16 16 17 18 19 20 21 22 22 22 23 23 23 23 23 23 22 22 22 21 22 22 23 23 24 24 23 23 22 22 22 21 21 21 21 21 21 21 22 22 22 23 23 23 23 23 23 24 25 26
15 15 14 14 15 15 15 15 16 16 16 16 16 16 16 16 16 16 16 18 19 20 21 21 22 22 22 23 23 23 23 23 23 23 23 23 23 23 23 23 23 23 23 24 25 25 25 24 23 23 22 21 22 22 22 22 22 22 22 22 22 23 23 23 23 23 24 25 26
15 15 15 16 16 16 16 16 16 17 17 17 17 17 17 17 17 18 19 20 21 21 21 21 21 21 21 21 22 22 22 22 23 23 24 24 24 24 24 23 23 24 24 24 24 24 25 25 24 23 23 22 22 23 23 23 23 23 23 23 23 22 22 23 23 23 24 25 26
15 15 16 16 16 16 17 17 17 17 17 17 17 17 18 18 18 19 20 21 20 20 20 19 19 20 20 21 21 22 22 22 22 23 23 23 23 24 23 23 23 24 24 23 23 23 23 23 23 23 23 22 22 22 22 23 24 24 24 24 24 23 23 23 23 24 24 26 27
16 16 16 16 16 17 17 17 18 18 18 18 18 18 18 18 19 19 20 20 19 19 19 19 19 20 21 21 22 22 22 22 22 22 22 21 22 22 22 22 22 22 23 22 22 22 22 22 22 22 22 22 21 21 21 22 23 24 25 25 25 25 24 23 23 24 25 26 27
16 17 17 17 17 17 17 18 18 18 18 18 18 17 18 18 19 19 19 19 19 19 19 19 20 21 21 21 21 21 21 21 21 21 21 21 21 21 22 22 22 22 22 22 22 23 22 22 22 22 22 22 22 23 22 22 23 24 25 25 25 25 25 25 24 24 25 26 28
16 17 17 18 18 18 18 18 18 18 17 17 17 18 18 18 18 18 18 19 19 20 20 20 20 21 21 21 21 21 20 20 20 20 20 21 21 21 21 22 22 22 22 23 23 22 22 22 22 22 22 23 23 24 24 24 24 25 25 26 25 26 26 26 26 25 25 25 27
17 17 18 18 18 18 18 18 18 17 17 17 18 18 18 18 18 18 19 19 20 20 20 20 20 20 21 20 20 20 20 20 20 21 21 22 22 22 22 22 22 22 23 23 23 22 22 23 23 23 23 23 23 24 24 25 25 25 26 27 26 26 27 27 27 26 25 24 25
17 17 18 18 18 18 18 18 17 17 17 17 18 18 18 18 19 19 19 20 20 20 20 20 20 20 20 20 20 20 20 21 21 21 22 22 22 22 22 22 22 22 22 22 22 22 22 23 23 23 24 24 23 23 24 25 25 25 26 27 27 27 27 27 27 27 27 26 25
17 17 18 18 18 18 17 17 17 17 17 17 18 18 18 19 19 19 19 19 20 20 21 21 20 20 20 20 20 21 21 22 22 22 23 23 23 23 22 22 22 22 22 22 22 22 22 23 23 23 23 24 24 24 25 25 25 25 26 27 27 27 27 27 27 27 28 28 28
17 17 18 18 18 18 17 17 17 17 17 17 18 18 19 19 19 19 19 19 20 20 20 20 20 21 21 21 21 22 22 22 22 22 22 23 23 22 22 22 22 22 22 21 22 22 22 23 23 23 24 24 24 25 25 25 25 25 26 26 26 26 26 26 26 27 28 29 29
17 18 18 18 18 18 18 18 17 17 18 18 19 19 20 19 19 19 19 20 20 20 20 21 21 22 22 22 22 22 22 22 22 22 22 22 22 22 22 22 22 22 22 22 22 23 23 23 23 23 23 24 24 25 26 26 26 26 25 26 26 26 26 26 26 26 27 29 30
17 18 18 18 18 18 18 18 18 18 19 19 20 20 20 20 19 20 20 21 21 21 22 22 22 22 22 22 22 22 21 21 21 21 21 21 22 22 22 22 22 22 22 22 23 23 23 23 23 23 23 24 24 25 26 26 26 26 26 25 25 26 26 26 26 26 27 28 29
18 18 18 18 18 19 19 19 19 19 20 20 20 20 20 20 20 21 21 21 21 22 23 23 23 23 23 23 22 22 21 22 22 22 22 22 22 22 23 23 23 23 23 23 23 22 22 22 22 23 23 23 24 24 25 25 26 26 26 25 25 25 25 26 27 27 27 27 29
18 19 19 19 19 19 20 20 20 20 20 21 21 21 21 21 21 22 22 22 22 22 23 24 23 23 23 23 23 22 22 22 22 23 23 22 22 22 23 23 23 23 23 23 22 22 22 22 22 22 23 23 23 23 24 24 25 26 26 26 25 25 25 26 26 27 27 27 28
18 19 19 19 20 20 20 20 20 21 21 21 21 21 21 22 22 22 22 22 22 23 23 23 24 23 23 23 23 23 22 22 22 22 23 23 22 22 22 23 23 23 23 22 22 22 22 22 22 22 22 23 23 23 23 24 24 25 26 27 26 25 25 25 25 26 27 27 27
18 19 19 20 20 20 21 21 21 21 21 21 21 22 22 22 22 22 22 23 23 23 23 23 23 23 23 23 23 23 23 22 22 22 22 22 22 22 22 22 22 22 22 22 22 22 21 21 21 22 22 22 23 22 22 22 22 23 24 25 25 25 25 25 25 26 27 27 27
18 19 19 20 20 21 21 21 22 22 22 22 22 22 22 22 22 22 22 23 23 23 23 23 23 23 23 23 23 23 23 22 22 22 22 22 22 22 22 22 22 22 23 23 22 22 21 21 20 20 20 21 21 22 22 22 22 22 22 22 23 24 24 24 25 26 26 27 28
19 19 19 20 20 21 21 22 22 22 22 22 22 22 22 22 23 23 23 23 23 23 23 23 23 23 23 23 23 23 23 23 23 22 22 22 22 22 22 21 22 23 23 22 21 21 20 19 19 19 19 20 21 22 23 23 23 23 23 24 24 24 24 23 23 24 25 27 28
19 19 20 20 21 21 22 22 22 22 22 22 22 22 23 23 23 23 23 23 23 23 23 23 23 23 23 23 23 23 22 22 22 22 22 22 22 21 21 21 21 22 21 20 19 19 18 18 18 18 19 20 21 22 23 23 23 23 24 24 25 25 25 25 23 23 23 25 27
19 20 20 20 21 21 22 22 22 22 22 22 23 23 23 23 23 23 23 23 23 23 23 23 23 23 23 23 22 21 21 21 21 22 22 22 22 22 22 21 21 20 20 19 19 19 19 19 20 20 21 21 22 22 23 23 23 23 23 24 24 24 25 25 25 24 23 23 25
19 20 20 20 21 21 22 22 22 22 23 23 23 23 23 23 23 23 24 24 24 24 24 24 23 23 22 21 21 20 20 20 20 21 21 22 22 22 22 21 21 20 19 19 19 20 21 22 22 23 23 22 22 22 22 22 22 23 23 24 24 24 24 24 24 24 24 23 23
19 20 20 21 21 22 22 22 22 22 23 23 23 23 23 24 23 24 24 24 24 24 24 23 22 22 21 20 20 20 20 20 21 21 21 22 22 22 22 21 20 20 19 20 21 22 23 24 25 25 24 23 22 22 22 21 22 22 22 23 23 23 23 23 23 24 24 24 23
19 20 21 21 22 22 22 22 22 23 23 23 23 23 24 24 24 24 24 24 24 24 23 22 21 20 19 19 19 20 21 21 21 21 21 21 22 22 22 21 21 21 21 22 23 24 25 25 25 25 25 24 23 22 22 22 22 21 21 21 22 22 22 22 22 23 23 24 23
19 20 21 22 22 22 22 22 23 23 23 23 23 24 24 24 24 24 24 24 23 23 22 21 20 20 19 20 21 21 22 22 21 21 21 21 21 22 22 22 22 23 23 23 24 25 25 25 25 25 25 25 23 22 22 21 21 21 20 20 20 21 21 21 21 22 22 23 24
19 20 21 22 22 23 23 23 23 23 23 23 23 24 24 24 24 24 24 23 23 22 21 21 21 21 21 22 22 22 22 22 21 21 21 22 22 22 22 23 23 23 24 24 25 25 25 25 25 25 25 25 24 23 23 22 21 21 21 20 21 21 22 22 22 22 22 23 24
20 21 22 22 23 23 23 23 23 23 23 23 24 24 24 24 24 23 23 23 22 22 22 22 22 22 22 22 22 22 22 22 21 21 21 22 22 23 23 23 24 24 24 25 25 25 25 25 26 26 26 26 25 24 23 23 22 22 21 21 21 22 22 23 23 23 24 24 24
20 21 22 22 23 23 23 23 23 23 23 23 23 24 24 24 24 23 23 22 22 22 22 22 22 22 22 22 22 22 22 22 22 22 22 22 23 23 24 24 24 24 24 25 25 25 26 26 26 26 27 27 26 25 24 24 23 22 22 22 22 23 23 23 23 24 25 25 24
21 21 22 22 23 23 23 23 23 23 23 23 23 23 24 24 24 23 23 22 22 22 22 22 22 22 22 22 22 22 22 22 22 22 22 23 23 24 24 24 24 23 23 24 25 26 26 27 27 27 28 28 27 25 24 23 22 22 21 22 22 22 22 23 24 24 25 25 25
21 22 22 23 23 23 24 24 24 24 24 24 24 24 23 23 24 24 23 22 22 22 22 22 22 22 22 22 22 22 22 22 22 23 23 23 23 24 24 24 23 23 23 24 25 26 27 27 28 28 28 28 26 24 23 22 22 21 22 22 22 22 23 23 24 24 25 26 26
21 22 23 23 23 24 24 24 24 24 24 24 24 24 24 24 24 23 23 23 23 22 22 22 22 22 21 22 22 22 22 23 23 23 23 23 24 24 24 24 24 24 24 24 25 26 27 27 27 27 27 27 25 23 22 22 21 21 22 22 23 23 23 23 24 24 24 25 26
21 22 23 23 24 24 24 24 24 24 24 24 24 24 24 24 24 23 23 23 23 23 23 22 22 22 22 22 22 22 22 23 23 24 24 24 24 24 24 24 24 24 24 24 25 25 26 26 27 27 27 25 23 21 21 21 21 21 21 22 23 23 23 23 24 24 24 24 25
21 22 23 23 24 24 24 24 24 24 24 24 24 24 25 24 24 24 23 23 23 23 23 23 23 23 23 23 23 23 23 23 24 24 24 24 24 24 24 24 24 24 24 24 24 25 25 26 26 26 25 23 22 21 21 20 20 20 21 21 22 22 22 22 22 23 23 24 25
21 22 22 23 24 24 24 24 24 24 25 25 25 24 24 24 24 23 23 22 23 23 24 24 24 24 23 24 24 24 24 23 23 24 24 24 24 24 24 24 24 24 24 24 24 25 25 26 25 25 23 22 21 21 20 20 20 20 20 21 21 21 21 21 21 21 22 23 24
21 21 22 23 23 24 24 24 24 24 25 25 25 25 24 24 23 23 23 22 22 23 24 25 25 25 24 25 25 25 25 24 24 23 24 24 24 24 24 24 25 24 24 24 24 25 25 24 24 23 22 21 20 20 19 19 19 20 20 20 20 21 21 21 21 21 22 23 24
21 21 22 22 23 24 24 24 24 24 24 24 25 25 25 24 24 23 23 23 22 23 24 25 25 25 25 25 25 26 26 25 24 23 23 23 23 24 24 24 25 24 24 23 23 23 23 23 22 21 21 20 19 19 19 19 19 19 19 19 19 20 20 20 20 20 20 21 22
21 21 22 22 23 23 24 24 25 24 24 24 24 24 24 24 24 23 23 23 23 23 24 24 25 25 25 25 25 26 26 26 25 24 24 24 23 23 23 24 24 24 23 23 22 22 22 21 21 20 20 20 19 19 18 18 18 18 18 19 18 18 18 19 19 19 19 20 20
Wind_Direction
330 328 325 322 318 314 310 307 304 302 300 299 298 298 297 296 294 293 292 292 291 291 291 291 290 290 290 290 291 290 290 289 288 286 284 282 281 281 281 281 280 279 277 276 275 273 271 270 269 269 268 266 264 261 257 254 252 250 249 247 246 246 246 245 245 244 242 241 240
328 325 321 318 315 312 309 306 304 303 301 300 298 297 297 295 294 293 292 292 291 291 291 291 291 290 291 292 292 293 293 292 291 289 287 284 282 282 281 280 280 279 279 279 278 275 271 268 266 264 263 263 261 260 257 254 251 249 248 247 246 246 246 246 246 246 245 244 242
327 324 321 318 315 313 310 307 305 303 302 301 299 298 296 295 294 293 292 291 291 291 291 291 291 292 293 294 294 293 293 293 292 292 290 288 285 283 281 280 280 279 279 278 277 275 273 271 267 264 261 258 256 255 254 253 250 248 248 247 247 246 245 244 244 245 246 246 245
327 324 321 318 315 312 309 306 305 304 303 302 300 298 296 294 293 292 291 291 291 291 292 293 294 295 295 295 294 294 293 293 293 293 292 291 289 288 286 285 284 283 282 281 279 276 273 271 268 265 262 259 256 254 252 251 250 248 248 248 248 247 246 244 243 242 242 244 245
327 324 321 317 314 312 309 306 305 305 304 302 300 298 296 294 294 293 293 294 294 295 296 297 296 296 295 295 294 293 293 292 292 291 290 289 289 289 288 286 285 284 284 284 283 281 278 275 270 266 263 261 259 257 255 253 252 251 249 248 247 246 246 245 243 241 240 241 242
326 323 320 317 314 312 310 307 306 304 303 300 298 296 294 294 295 296 298 298 298 298 298 297 296 295 294 293 292 291 291 290 289 287 286 286 286 285 285 284 283 282 281 281 280 280 280 278 275 270 266 262 260 258 256 254 253 251 250 248 246 245 245 245 244 242 241 239 240
323 321 319 317 315 312 310 308 306 304 302 299 296 295 294 295 297 299 300 300 300 299 298 297 295 294 293 293 292 292 291 290 288 287 285 284 283 283 282 282 282 281 280 278 276 275 275 275 275 273 270 265 261 258 255 252 250 249 248 247 246 245 245 245 245 244 243 241 240
322 320 319 317 315 312 310 308 306 304 301 298 297 296 297 299 301 301 301 300 299 298 298 297 296 295 295 295 294 294 293 291 290 288 286 285 284 283 282 282 281 281 280 279 277 275 273 272 271 271 270 268 265 260 256 251 247 245 244 245 245 245 245 244 244 244 244 243 241
322 321 319 317 315 313 311 309 307 304 301 299 298 299 300 302 302 302 302 300 299 299 299 298 298 297 297 296 295 294 293 291 290 289 288 287 285 285 284 283 282 281 280 280 280 278 276 273 270 269 269 269 269 267 262 255 249 244 242 242 243 244 244 244 243 242 242 243 243
321 321 320 318 316 314 312 310 308 305 303 301 301 302 303 303 302 302 301 301 300 300 299 299 298 298 297 296 295 293 292 291 290 289 289 288 287 286 285 284 283 282 281 280 280 280 279 277 274 272 270 270 271 271 269 264 256 249 244 242 241 241 243 244 244 242 241 241 242
321 321 320 319 317 315 314 312 310 308 307 306 305 306 305 304 303 302 302 302 301 300 299 298 298 298 297 296 295 293 293 292 291 290 290 289 288 287 286 284 283 282 281 280 280 279 279 277 276 275 273 271 271 271 271 268 262 255 249 245 242 241 242 245 246 246 244 241 240
320 320 320 318 317 316 315 313 312 310 309 308 307 307 306 305 305 304 304 302 301 300 299 299 299 298 297 296 295 294 293 293 292 291 291 289 288 288 287 285 284 282 281 280 279 278 277 276 275 274 273 271 270 269 269 268 264 259 253 249 245 243 242 244 246 248 249 247 243
320 320 319 318 317 315 314 313 312 310 309 308 308 308 308 307 306 306 305 303 302 302 301 301 300 299 298 297 296 295 295 294 293 293 291 290 289 288 287 286 284 283 281 280 279 277 276 275 274 273 273 272 270 269 269 268 266 261 256 251 247 245 243 242 244 247 251 254 252
320 320 319 318 317 315 314 313 312 310 309 309 309 309 309 308 308 307 306 304 303 303 303 302 301 300 298 298 297 296 295 294 294 292 291 290 289 288 286 285 284 283 282 280 278 276 275 274 274 274 274 273 272 272 271 271 269 265 259 253 248 245 243 243 242 244 248 252 255
320 320 319 318 317 315 314 314 312 311 310 310 310 310 310 309 308 307 306 305 304 304 303 303 302 301 300 298 297 297 296 295 293 292 291 290 289 288 286 285 284 283 282 281 279 278 276 275 275 275 275 275 274 273 273 273 273 270 264 256 249 245 244 244 242 241 242 246 251
320 320 319 318 317 316 315 314 313 312 311 310 310 310 310 309 308 307 307 306 305 304 303 303 302 302 301 300 299 298 296 295 293 292 291 290 289 289 288 287 286 285 284 283 281 280 278 277 277 276 276 276 275 274 274 274 275 274 269 261 252 246 244 244 243 242 241 242 246
320 320 319 318 317 316 315 314 313 312 311 310 310 310 309 308 307 307 306 306 305 304 303 303 302 302 301 300 299 298 297 295 294 292 291 291 290 290 289 289 288 287 286 284 282 281 280 279 279 278 278 277 276 275 275 275 275 276 273 267 257 249 244 244 244 244 244 243 244
320 320 319 318 317 316 315 314 313 311 310 310 310 309 309 308 307 307 306 305 305 304 303 303 302 301 300 300 299 298 297 296 294 293 292 291 290 290 290 289 289 288 287 285 284 283 282 282 281 281 279 278 277 276 275 275 275 276 275 272 264 255 248 245 245 246 246 246 246
320 320 319 318 317 316 315 314 313 312 311 311 310 309 309 308 307 306 306 306 305 304 304 303 303 302 300 299 299 298 297 295 294 293 292 292 291 290 290 290 289 289 288 287 286 285 285 285 285 284 282 281 279 277 276 275 274 275 276 275 271 264 255 249 247 247 247 248 248
319 319 319 318 317 316 316 315 314 313 312 311 311 310 309 308 308 307 307 306 306 305 304 304 303 302 301 300 299 298 297 296 295 294 294 293 292 291 291 291 290 290 289 288 288 287 287 287 288 288 287 285 284 281 279 276 274 273 273 274 273 269 262 256 251 249 248 248 248
317 317 317 317 317 316 315 315 314 313 312 312 311 310 310 309 309 308 307 307 306 306 305 304 303 303 302 301 300 300 299 298 296 295 295 294 293 292 292 292 292 291 291 290 290 289 289 289 289 289 289 289 288 287 286 284 281 278 276 274 273 270 266 260 255 251 250 249 248
316 316 316 316 316 316 315 315 315 314 313 312 312 311 311 310 309 308 308 307 307 307 306 305 304 303 302 302 301 301 300 299 298 296 295 294 293 293 293 293 293 293 292 292 291 291 290 290 290 290 291 292 293 295 296 295 294 292 289 285 282 279 274 266 258 253 251 250 249
315 315 316 315 316 316 316 316 316 315 314 314 313 312 311 310 309 309 308 308 308 307 307 306 305 304 303 302 302 301 300 299 298 297 296 295 295 295 295 295 295 294 293 292 291 291 291 291 292 293 296 298 300 300 300 299 298 296 295 293 292 291 287 281 271 260 253 250 249
315 315 315 315 316 316 317 317 317 316 316 315 314 313 312 311 310 310 309 309 308 308 307 307 306 305 304 303 302 301 300 299 298 298 298 297 297 297 297 297 295 294 293 291 290 291 292 294 297 299 302 303 303 302 301 298 296 294 293 292 292 291 291 290 286 277 264 254 250
315 315 315 316 316 317 318 318 318 317 316 315 314 313 312 311 311 310 309 309 308 308 308 307 306 306 305 304 302 301 299 299 299 299 299 300 299 299 299 298 296 294 292 291 290 291 293 296 298 301 303 304 303 302 299 297 295 292 290 288 287 287 288 289 288 286 279 268 257
315 316 316 316 317 318 318 318 318 317 316 315 314 313 313 312 311 310 309 308 308 308 308 307 307 306 305 303 302 301 300 300 300 299 300 300 300 300 300 299 297 295 293 292 293 294 296 298 299 300 301 301 301 300 298 296 294 291 288 286 284 283 283 284 285 286 285 280 269
316 317 317 318 318 318 318 318 318 317 316 315 314 313 312 312 311 310 309 308 308 308 308 307 306 306 305 303 302 302 302 301 301 300 300 299 300 300 300 299 298 296 295 295 296 297 298 299 299 299 299 298 298 298 297 296 294 291 288 285 282 280 279 279 280 282 283 283 279
317 318 319 319 319 319 319 318 318 317 316 315 314 313 312 311 310 309 308 308 308 308 308 307 307 306 305 304 303 303 302 302 301 301 300 299 299 299 299 298 298 297 296 296 297 297 298 298 299 298 298 297 297 297 296 296 294 292 288 284 280 278 276 275 275 277 279 280 280
319 319 320 320 320 319 319 319 318 317 316 314 313 312 312 311 310 309 309 308 308 308 308 308 307 306 305 304 303 303 303 302 302 301 301 300 299 299 299 298 298 297 297 297 297 297 297 297 297 297 297 297 297 296 296 295 293 291 288 284 280 277 274 273 272 273 274 276 278
320 321 320 320 319 319 319 318 317 316 315 314 313 312 311 310 310 309 309 309 308 308 307 306 305 304 303 303 303 303 303 303 303 302 301 301 300 299 299 298 298 297 297 297 297 297 297 297 297 297 297 297 297 296 295 293 292 289 286 283 280 276 274 272 272 271 271 272 275
321 321 320 320 319 318 318 317 316 315 314 313 312 311 311 310 309 309 309 308 308 307 306 305 304 303 302 302 302 302 302 303 303 302 302 301 300 299 299 298 298 297 297 297 297 297 297 297 297 297 298 298 297 297 295 293 290 288 285 282 279 276 274 272 271 270 269 269 270
321 321 320 319 318 317 317 316 315 314 313 312 311 310 310 309 309 308 308 308 307 307 306 306 304 304 303 303 303 303 302 303 303 302 302 301 300 299 299 299 298 297 297 297 298 298 298 298 298 299 299 300 299 297 295 292 290 287 283 281 278 276 274 271 269 268 267 266 267
321 320 319 318 317 317 316 315 314 313 312 312 311 310 309 309 309 309 308 308 308 308 307 306 305 304 304 304 304 303 303 303 303 302 301 300 300 299 299 299 298 297 297 297 298 298 298 299 299 300 300 301 300 298 295 293 290 287 284 281 279 276 274 271 268 266 265 264 264
321 320 318 317 316 316 315 314 314 313 312 312 311 310 309 309 309 309 309 309 308 307 306 305 304 303 303 302 302 302 303 302 302 302 302 301 300 299 299 298 297 296 296 297 297 298 299 299 300 300 301 301 301 299 296 294 291 288 285 283 281 279 276 273 270 267 265 263 262
320 319 317 316 315 314 314 313 313 312 312 311 311 310 309 309 309 309 309 309 308 307 305 304 303 303 302 302 301 302 302 302 302 302 302 302 301 300 298 297 296 296 296 297 297 298 298 299 299 300 301 301 300 299 297 295 293 290 288 286 284 281 278 275 272 269 266 263 261
318 317 316 315 314 313 313 313 312 312 311 310 310 310 310 310 309 309 309 309 308 307 306 306 305 305 304 304 303 303 302 302 302 302 302 302 301 299 298 297 297 297 297 297 298 298 298 298 299 300 301 301 300 300 299 298 295 293 291 289 287 284 281 279 275 271 267 264 261
317 316 314 313 312 312 312 311 311 310 310 309 309 309 309 309 308 308 309 309 309 308 307 307 306 306 305 305 304 303 303 302 302 302 302 301 300 299 299 298 298 298 298 299 298 298 298 298 298 299 300 300 301 301 300 299 297 295 293 291 289 287 284 282 278 274 269 265 261
315 314 313 312 311 310 310 310 309 309 308 308 308 308 308 308 307 308 308 309 308 307 307 307 307 306 306 305 305 304 303 302 302 301 300 300 299 299 299 299 299 299 299 299 298 298 298 298 298 299 300 300 301 301 300 299 298 296 294 293 291 289 287 284 281 276 272 267 262
314 313 311 310 309 309 309 308 307 307 307 307 307 307 307 307 306 306 306 306 306 305 305 306 305 305 305 305 305 304 303 302 302 301 300 299 299 299 299 299 299 299 299 299 298 298 298 297 298 299 301 301 301 301 300 300 298 296 295 293 292 291 289 286 282 278 274 270 266
312 311 310 309 308 307 307 306 305 305 305 305 306 306 306 305 305 304 304 304 304 304 304 304 303 304 305 305 305 305 304 303 303 302 300 299 299 299 299 299 299 299 299 298 298 298 298 298 298 300 302 302 302 301 301 300 298 296 295 294 293 292 291 288 285 281 277 274 270
311 310 309 308 307 306 305 304 304 304 304 304 304 304 304 304 303 303 304 304 304 304 303 302 302 303 303 304 305 304 304 304 304 303 302 301 300 300 300 299 299 299 300 299 299 299 299 299 300 301 302 303 303 302 301 300 297 296 295 294 294 294 294 294 292 289 285 281 277
Height
796 796 796 795 794 793 792 791 791 790 789 788 787 786 785 784 783 781 781 780 778 777 776 775 774 773 772 771 771 770 769 768 767 766 766 765 764 763 763 762 761 761 760 759 759 758 758 757 757 756 755 754 753 753 752 752 751 751 751 751 751 750 750 749 749 748 748 747 746
796 796 795 794 794 793 792 791 790 789 788 787 786 785 784 783 782 781 779 778 777 776 775 774 772 771 771 770 769 768 767 766 766 765 764 763 762 761 761 760 760 759 758 758 757 757 756 756 755 754 753 752 752 751 751 750 750 750 750 749 749 749 748 748 747 746 746 746 745
796 795 795 794 793 792 791 790 789 788 787 786 785 784 783 782 781 780 778 777 776 775 774 773 771 771 770 769 768 767 766 765 764 763 762 761 761 760 759 758 758 757 757 756 756 755 754 754 753 752 751 751 750 750 749 749 749 748 748 747 747 747 746 746 745 745 745 744 743
796 795 794 793 792 791 791 790 788 787 786 785 784 783 782 781 780 779 777 776 775 774 773 771 770 769 768 767 766 765 765 764 763 762 761 760 759 758 757 757 756 756 755 754 754 753 752 752 751 750 749 748 748 747 747 746 746 746 746 745 745 745 744 743 743 743 743 742 741
795 794 793 792 792 791 790 789 788 787 786 785 783 782 781 780 779 777 776 775 774 773 772 771 769 768 767 766 765 764 763 762 761 760 759 758 757 756 756 755 755 754 753 753 752 751 751 750 749 748 747 746 746 745 744 744 744 744 744 743 743 743 742 741 741 741 740 740 739
794 793 793 792 791 790 789 788 787 786 785 784 782 781 780 779 778 777 776 774 773 771 770 769 768 766 765 764 763 762 761 760 760 759 758 757 756 755 754 754 753 752 752 751 750 750 749 748 747 746 745 744 743 743 742 742 742 742 742 741 741 740 740 739 739 738 738 737 737
794 793 792 791 790 789 788 787 786 785 784 783 781 780 779 778 777 776 774 773 771 770 769 768 766 765 764 763 761 761 760 758 758 757 756 755 754 753 752 751 751 750 750 749 748 748 747 746 745 744 742 742 741 741 740 740 740 740 740 739 738 738 738 737 736 736 736 735 734
793 792 791 790 789 788 787 786 785 784 783 781 780 779 778 777 776 774 773 772 771 769 767 766 765 764 763 761 760 759 758 757 756 755 754 753 752 751 750 750 749 748 748 747 746 746 745 744 743 742 741 740 739 738 737 737 737 737 737 736 736 736 736 735 734 734 733 732 732
792 791 790 789 788 787 786 785 784 783 782 781 779 778 777 776 775 773 772 771 769 768 766 765 764 762 761 760 759 758 757 756 754 753 752 751 750 749 748 747 747 746 746 745 744 744 743 742 741 740 739 738 737 736 735 735 735 734 734 734 734 733 733 732 732 731 731 730 730
792 791 790 788 787 786 785 784 783 782 781 779 778 777 776 775 773 772 771 769 768 766 765 764 762 761 760 759 758 756 755 754 753 752 751 750 749 747 746 746 745 744 744 743 743 742 741 740 739 737 737 736 735 734 733 733 732 731 731 731 731 731 730 730 729 729 728 728 727
791 790 789 788 786 786 784 783 782 781 780 778 777 776 775 773 772 771 770 768 767 765 764 763 761 760 759 757 756 755 754 753 751 750 749 748 747 746 745 744 743 742 742 741 741 740 739 738 737 736 735 734 733 732 732 731 730 729 729 728 728 728 727 727 727 726 726 725 724
790 789 788 787 786 785 783 782 781 780 778 777 776 775 773 772 771 770 768 767 766 764 762 761 760 759 757 756 755 754 752 751 750 749 748 746 745 744 743 742 741 741 740 739 739 738 737 736 735 734 733 732 731 731 730 729 728 727 726 726 725 725 725 724 724 724 723 722 721
789 788 787 786 785 784 783 781 780 779 777 776 775 773 772 771 770 768 767 766 764 763 761 760 759 757 756 755 753 752 751 750 749 747 746 745 744 743 742 741 740 739 738 737 737 736 735 734 733 732 731 730 729 728 727 726 726 724 723 723 722 722 721 721 722 722 721 720 719
789 788 786 785 784 783 782 781 779 778 776 775 774 772 771 770 768 767 766 764 763 761 760 758 757 756 755 753 752 751 750 748 747 746 745 743 742 741 740 739 738 737 736 735 735 734 733 732 731 730 729 728 727 726 725 724 723 722 721 720 720 719 719 719 719 719 719 718 717
788 787 786 785 784 782 781 780 778 777 776 774 773 771 770 768 767 766 765 763 761 760 759 757 756 755 753 752 751 749 748 747 746 744 743 741 740 739 738 737 736 735 734 733 732 732 731 730 729 728 727 726 725 724 723 722 721 719 718 717 717 716 716 716 716 716 716 716 715
787 786 785 784 783 781 780 779 777 776 775 773 771 770 769 767 766 765 763 762 761 759 757 756 755 753 751 751 749 748 746 745 744 742 741 740 739 737 736 735 734 733 732 731 731 730 729 728 727 726 725 724 723 722 721 720 718 717 716 715 714 714 714 714 713 713 713 713 712
786 785 784 783 782 781 779 778 777 775 774 772 771 769 768 766 765 763 762 761 759 758 756 755 753 752 750 749 747 746 745 743 742 741 740 738 737 736 735 734 732 731 731 730 728 727 726 726 725 724 723 722 721 720 718 717 716 715 713 712 711 711 711 711 711 710 710 709 709
785 784 783 782 781 780 778 777 776 774 772 771 770 768 767 765 764 762 761 760 758 757 755 753 752 751 749 747 746 745 743 742 741 739 738 737 736 734 733 732 731 730 729 728 726 726 725 724 723 722 721 720 719 717 716 715 714 712 711 710 709 708 708 708 707 707 707 706 706
784 783 782 781 780 778 777 776 774 773 771 770 768 767 766 764 763 761 760 758 757 756 754 752 751 749 748 746 745 743 742 741 739 737 736 735 734 733 731 730 729 728 727 726 725 724 723 722 721 720 719 717 716 715 714 713 712 711 709 708 707 706 705 705 704 704 704 704 704
783 782 781 780 779 777 776 774 773 771 770 768 767 765 764 763 761 760 758 757 756 754 752 751 749 747 746 745 743 742 740 739 737 736 734 733 732 731 730 728 727 726 725 724 723 722 721 720 719 718 717 716 714 713 712 711 709 708 707 706 705 703 702 702 701 701 701 701 701
783 781 780 779 778 776 775 773 772 770 768 767 766 764 762 761 760 759 757 756 754 753 751 749 748 746 745 743 741 740 739 737 736 734 733 731 730 729 728 727 726 724 723 722 721 720 719 718 717 716 715 714 712 711 710 708 707 706 705 704 702 701 700 699 699 698 698 698 698
782 781 779 778 777 775 774 772 770 769 767 766 764 763 761 760 759 757 756 754 753 751 750 748 746 745 743 741 740 738 737 736 734 733 731 730 729 727 726 725 724 722 721 720 719 718 717 716 715 714 713 712 711 709 708 706 705 704 703 701 700 699 698 697 696 695 695 695 695
781 780 778 777 776 774 772 771 769 767 766 764 763 761 760 758 757 756 754 753 751 750 748 746 745 743 742 740 739 737 735 734 732 731 730 729 727 726 725 724 722 721 720 719 717 716 716 715 714 713 712 711 709 708 707 706 704 703 701 700 698 697 696 694 693 693 692 692 692
780 779 777 776 774 773 771 769 768 766 764 763 761 760 759 757 756 754 753 751 750 748 747 745 743 742 740 739 737 736 734 732 731 730 728 727 726 725 723 722 721 719 718 717 716 715 714 713 712 711 710 709 708 707 706 705 703 702 701 699 698 696 695 693 691 691 690 689 689
779 777 776 775 773 771 770 768 766 765 763 762 760 759 757 756 754 753 751 750 748 747 745 744 742 740 739 737 736 734 733 731 730 728 726 725 724 723 722 721 719 718 716 716 715 714 713 712 711 711 710 708 707 706 705 704 702 701 700 698 697 696 694 692 691 689 688 687 686
778 776 775 774 772 770 769 767 766 764 762 761 759 758 756 755 753 752 750 749 747 746 744 742 741 739 737 736 734 732 731 730 728 727 725 724 722 721 720 719 718 716 715 714 713 712 711 711 710 710 709 708 706 705 704 702 701 700 699 697 696 694 693 691 690 688 686 685 684
777 775 774 772 771 769 767 766 764 763 761 760 758 757 756 754 752 751 749 747 746 744 742 741 739 737 736 734 733 731 730 728 727 726 724 723 721 720 718 717 716 715 714 712 711 711 710 709 709 708 708 707 705 704 702 701 699 698 697 696 694 693 691 690 689 687 686 684 683
776 774 773 771 770 768 766 765 763 762 760 759 757 756 755 753 751 750 748 746 745 743 741 740 738 736 735 733 731 730 728 727 726 724 723 721 720 719 717 716 715 713 712 711 710 709 709 708 707 706 706 705 704 702 701 699 698 696 695 694 692 691 690 689 687 686 685 683 681
775 773 771 770 768 767 765 764 762 761 760 758 756 755 754 752 751 749 747 745 744 742 740 738 737 735 734 732 730 729 727 726 724 723 721 720 718 717 716 714 713 711 710 710 709 708 707 706 705 705 704 703 702 701 699 698 696 695 693 692 691 689 688 687 686 685 684 682 681
774 772 771 769 767 766 765 763 762 760 759 757 756 754 753 751 749 748 746 744 742 741 739 738 736 734 732 731 729 727 726 724 723 721 720 719 717 716 714 713 711 710 709 708 707 706 705 704 703 703 702 701 701 699 698 696 695 693 691 690 689 687 686 685 684 683 682 681 680
773 771 770 768 766 765 764 762 761 760 758 756 755 753 752 750 748 747 745 743 741 740 738 736 735 733 731 730 728 726 725 723 722 720 719 717 716 714 713 711 710 709 707 706 705 704 703 702 701 701 700 699 698 697 696 694 693 691 690 688 687 686 685 684 682 681 681 680 679
772 771 769 767 766 764 763 761 760 759 757 756 754 752 751 749 747 746 744 742 741 738 737 735 733 731 730 728 726 725 723 722 721 719 718 716 715 713 711 710 708 707 706 705 703 702 701 700 700 699 698 697 696 695 694 692 690 689 687 686 685 683 683 682 681 680 679 678 677
771 770 768 767 765 763 762 761 759 758 756 755 753 751 750 748 746 744 743 741 739 737 736 734 732 730 728 727 725 723 722 721 719 718 716 715 713 711 710 708 707 705 704 703 702 701 700 698 697 696 696 695 694 693 691 690 688 686 685 683 682 681 680 679 679 678 677 676 676
770 769 767 766 764 763 761 760 758 757 755 754 752 751 749 747 745 743 741 740 738 736 735 733 731 729 727 726 724 722 721 719 718 716 715 713 712 710 708 707 705 704 703 701 701 699 698 697 696 695 694 693 692 690 689 687 686 684 682 681 679 678 677 677 676 675 674 674 673
770 768 766 765 764 762 761 759 757 756 754 753 751 749 747 746 744 742 740 738 737 735 733 731 730 728 726 725 723 721 720 718 716 715 713 712 710 709 707 705 704 702 701 700 699 698 696 696 694 693 692 691 690 688 686 685 683 681 680 679 677 676 675 674 673 672 672 671 671
769 768 766 764 763 761 760 758 757 755 753 751 750 748 746 745 743 741 739 737 736 734 732 730 728 726 725 723 721 720 718 716 715 713 711 710 709 707 705 703 702 701 700 699 697 696 695 694 693 692 691 690 688 686 685 683 681 680 678 676 675 673 672 671 671 670 669 668 668
769 767 766 764 762 761 759 758 756 754 752 751 749 747 745 743 741 740 738 736 734 732 730 728 727 725 723 721 720 718 717 715 714 712 710 709 707 706 704 701 700 699 698 697 696 695 694 692 691 691 690 688 687 685 683 681 680 678 676 675 673 671 671 669 668 667 666 666 665
768 767 765 763 761 760 758 757 755 753 751 750 748 746 745 743 741 739 737 736 733 731 729 727 725 724 722 720 718 716 715 714 712 711 708 707 706 704 702 700 698 697 696 695 694 693 692 691 690 689 688 687 686 684 682 681 679 677 675 673 672 670 669 668 666 665 664 663 662
767 766 764 763 761 759 757 756 754 752 751 749 747 745 743 742 740 738 736 735 733 731 728 726 724 722 720 719 716 715 713 711 711 709 707 705 704 702 701 699 697 695 694 694 692 691 691 689 689 688 687 686 685 683 681 680 678 676 674 673 671 669 668 666 665 664 662 661 660
766 765 764 762 760 759 757 755 753 752 750 748 746 744 742 741 739 737 735 733 731 730 727 725 723 721 719 717 715 713 711 709 708 707 706 704 702 701 699 697 696 694 692 692 691 690 689 688 687 687 686 685 684 682 681 679 677 675 674 672 670 669 667 665 664 662 661 659 658
765 764 762 761 760 758 756 754 752 751 749 747 745 743 741 739 737 736 734 732 731 729 726 724 721 720 718 716 714 711 709 707 706 705 704 702 700 699 697 696 694 692 691 690 689 688 687 687 686 686 685 684 683 681 680 678 676 675 673 671 670 668 666 664 663 661 660 658 656